DW3128 Weather Reports


time (UTC)temp
C
wind
direction
speed
KPH
gust
KPH
rain 1hr
cm
rain 24hr
cm
rain mn
cm
humidity
%
barometer
mb
20260509234312 32 123 8.0 12.9 0.00 0.03 0.03 43 1006.1
20260509233313 32 134 6.4 12.9 0.00 0.03 0.03 42 1006.2
20260509232812 32 59 3.2 12.9 0.00 0.03 0.03 43 1006.2
20260509232313 32 125 4.8 12.9 0.00 0.03 0.03 43 1006.3
20260509231812 32 32 6.4 12.9 0.00 0.03 0.03 43 1006.3
20260509231312 32 146 3.2 12.9 0.00 0.03 0.03 43 1006.3
20260509230813 32 156 9.7 12.9 0.00 0.03 0.03 43 1006.4
20260509230312 32 70 9.7 16.1 0.00 0.03 0.03 41 1006.4
20260509225813 32 157 9.7 14.5 0.00 0.03 0.03 42 1006.5
20260509225312 32 168 8.0 12.9 0.00 0.03 0.03 43 1006.4
20260509224812 32 87 4.8 9.7 0.00 0.03 0.03 41 1006.4
20260509223312 32 86 4.8 16.1 0.00 0.03 0.03 42 1006.4
20260509222812 32 89 4.8 12.9 0.00 0.03 0.03 40 1006.4
20260509221813 32 161 4.8 8.0 0.00 0.03 0.03 42 1006.4
20260509221312 32 136 8.0 12.9 0.00 0.03 0.03 43 1006.4
20260509220812 32 83 4.8 9.7 0.00 0.03 0.03 43 1006.6
20260509214812 32 98 1.6 12.9 0.00 0.03 0.03 46 1006.6
20260509214312 32 108 8.0 11.3 0.00 0.03 0.03 46 1006.6
20260509213812 32 130 6.4 12.9 0.00 0.03 0.03 48 1006.6
20260509213312 32 99 8.0 14.5 0.00 0.03 0.03 46 1006.7
20260509212312 32 135 4.8 12.9 0.00 0.03 0.03 48 1006.7
20260509211812 32 214 1.6 11.3 0.00 0.03 0.03 48 1006.8
20260509211312 31 146 3.2 8.0 0.00 0.03 0.03 51 1006.8
20260509210312 31 125 9.7 14.5 0.00 0.03 0.03 48 1007.0
20260509205812 31 254 4.8 9.7 0.00 0.03 0.03 48 1007.0
20260509205312 31 123 8.0 16.1 0.00 0.03 0.03 47 1007.1
20260509204813 31 102 11.3 12.9 0.00 0.03 0.03 49 1007.2
20260509203812 32 87 9.7 16.1 0.00 0.03 0.03 46 1007.4
20260509203313 32 147 3.2 12.9 0.00 0.03 0.03 49 1007.4
20260509202812 31 182 3.2 12.9 0.00 0.03 0.03 48 1007.5
20260509202313 31 313 1.6 4.8 0.00 0.03 0.03 50 1007.5
20260509201812 31 113 4.8 8.0 0.00 0.03 0.03 48 1007.5
20260509201312 31 266 1.6 12.9 0.00 0.03 0.03 49 1007.7
20260509195813 31 138 6.4 9.7 0.00 0.03 0.03 53 1007.8
20260509195312 31 157 11.3 12.9 0.00 0.03 0.03 52 1007.9
20260509194812 31 138 4.8 11.3 0.00 0.03 0.03 55 1008.0
20260509194312 31 176 3.2 11.3 0.00 0.03 0.03 52 1008.0
20260509193812 31 196 3.2 4.8 0.00 0.03 0.03 52 1008.1
20260509193312 30 220 1.6 4.8 0.00 0.03 0.03 52 1008.1
20260509192812 30 265 4.8 8.0 0.00 0.03 0.03 50 1008.2
20260509192312 30 248 8.0 12.9 0.00 0.03 0.03 50 1008.2
20260509191812 30 120 8.0 11.3 0.00 0.03 0.03 52 1008.2
20260509190812 30 15 1.6 4.8 0.00 0.03 0.03 50 1008.3
20260509190312 29 13 3.2 4.8 0.00 0.03 0.03 50 1008.4
20260509185813 29 283 9.7 11.3 0.00 0.03 0.03 50 1008.5
20260509185312 29 245 3.2 12.9 0.00 0.03 0.03 51 1008.5
20260509184312 29 337 3.2 12.9 0.00 0.03 0.03 53 1008.7
20260509183812 29 298 8.0 12.9 0.00 0.03 0.03 53 1008.7
20260509182812 28 243 6.4 12.9 0.00 0.03 0.03 56 1008.8
20260509182312 28 315 4.8 11.3 0.00 0.03 0.03 56 1008.9
20260509181312 28 341 6.4 8.0 0.00 0.03 0.03 56 1009.1
20260509180812 28 275 8.0 12.9 0.00 0.03 0.03 56 1009.1
20260509180312 28 316 8.0 12.9 0.00 0.03 0.03 57 1009.1
20260509175312 28 315 4.8 9.7 0.00 0.03 0.03 57 1009.2
20260509174812 28 314 4.8 9.7 0.00 0.03 0.03 58 1009.3
20260509173811 28 315 9.7 14.5 0.00 0.03 0.03 58 1009.3
20260509173312 27 326 8.0 9.7 0.00 0.03 0.03 59 1009.3
20260509172812 27 330 6.4 11.3 0.00 0.03 0.03 58 1009.4
20260509172313 27 293 4.8 14.5 0.00 0.03 0.03 59 1009.4
20260509171812 27 277 12.9 16.1 0.00 0.03 0.03 60 1009.4
20260509171311 27 284 6.4 12.9 0.00 0.03 0.03 61 1009.5
20260509165812 27 341 4.8 8.0 0.00 0.03 0.03 59 1009.6
20260509165312 27 315 4.8 8.0 0.00 0.03 0.03 58 1009.6
20260509164812 27 329 4.8 12.9 0.00 0.03 0.03 61 1009.7
20260509163812 26 322 8.0 16.1 0.00 0.03 0.03 61 1009.8
20260509163312 26 302 8.0 14.5 0.00 0.03 0.03 61 1009.8
20260509161812 26 257 8.0 14.5 0.00 0.03 0.03 62 1010.1
20260509161311 26 313 6.4 11.3 0.00 0.03 0.03 63 1010.0
20260509160811 25 304 6.4 9.7 0.00 0.03 0.03 64 1010.1
20260509160312 25 308 8.0 14.5 0.00 0.03 0.03 66 1010.0
20260509155812 25 260 8.0 12.9 0.00 0.03 0.03 65 1009.9
20260509154811 25 295 8.0 9.7 0.00 0.03 0.03 68 1009.7
20260509153812 24 303 12.9 16.1 0.00 0.03 0.03 68 1009.7
20260509153312 24 286 8.0 14.5 0.00 0.03 0.03 70 1009.7
20260509152811 24 306 11.3 19.3 0.00 0.03 0.03 70 1009.6
20260509152312 24 297 14.5 16.1 0.00 0.03 0.03 72 1009.8
20260509151812 24 304 9.7 12.9 0.00 0.03 0.03 72 1009.7
20260509150811 23 306 12.9 14.5 0.00 0.03 0.03 72 1009.8
20260509150312 23 276 11.3 16.1 0.00 0.03 0.03 77 1009.9
20260509145311 23 311 16.1 16.1 0.00 0.03 0.03 79 1009.8
20260509144812 22 285 11.3 16.1 0.00 0.03 0.03 78 1009.8
20260509144312 22 298 17.7 16.1 0.00 0.03 0.03 78 1009.8
20260509143812 22 281 16.1 16.1 0.00 0.03 0.03 78 1009.8
20260509143312 22 285 9.7 16.1 0.00 0.03 0.03 80 1009.8
20260509142811 22 282 11.3 12.9 0.00 0.03 0.03 80 1009.8
20260509141811 22 299 4.8 8.0 0.00 0.03 0.03 79 1009.9
20260509141312 22 319 4.8 12.9 0.00 0.03 0.03 81 1010.0
20260509140812 21 319 1.6 3.2 0.00 0.03 0.03 81 1010.0
20260509140311 21 329 6.4 8.0 0.00 0.03 0.03 81 1010.1
20260509135812 21 330 4.8 8.0 0.00 0.03 0.03 82 1010.2
20260509135312 20 296 8.0 11.3 0.00 0.03 0.03 82 1010.2
20260509134312 20 306 9.7 14.5 0.00 0.03 0.03 82 1010.2
20260509133812 20 296 16.1 16.1 0.00 0.03 0.03 81 1010.2
20260509133311 20 307 14.5 16.1 0.00 0.03 0.03 82 1010.2
20260509132812 20 306 9.7 12.9 0.00 0.03 0.03 82 1010.2
20260509131812 20 292 9.7 14.5 0.00 0.03 0.03 81 1010.2
20260509131311 19 294 8.0 12.9 0.00 0.03 0.03 82 1010.1
20260509130812 19 324 8.0 11.3 0.00 0.03 0.03 81 1010.2
20260509130312 19 289 6.4 11.3 0.00 0.03 0.03 82 1010.2
20260509125812 19 313 6.4 9.7 0.00 0.03 0.03 82 1010.2
20260509125312 19 331 3.2 8.0 0.00 0.03 0.03 84 1010.1
20260509124312 18 294 8.0 11.3 0.00 0.03 0.03 84 1010.1
20260509123812 18 290 3.2 8.0 0.00 0.03 0.03 84 1010.0
20260509123312 18 281 4.8 4.8 0.00 0.03 0.03 84 1010.0
20260509122811 18 287 1.6 3.2 0.00 0.03 0.03 84 1010.0
20260509122313 18 287 0.0 1.6 0.00 0.03 0.03 84 1010.0
20260509121812 18 287 0.0 1.6 0.00 0.03 0.03 83 1010.0
20260509121312 18 287 1.6 3.2 0.00 0.03 0.03 83 1009.9
20260509120811 18 334 0.0 1.6 0.00 0.03 0.03 82 1009.7
20260509120311 18 334 1.6 3.2 0.00 0.03 0.03 82 1009.7
20260509115811 18 334 1.6 1.6 0.00 0.03 0.03 81 1009.8
20260509115312 19 334 0.0 1.6 0.00 0.03 0.03 80 1009.6
20260509114813 19 334 0.0 0.0 0.00 0.03 0.03 80 1009.5
20260509114312 19 334 0.0 0.0 0.00 0.03 0.03 80 1009.4
20260509113812 19 334 0.0 3.2 0.00 0.03 0.03 80 1009.2
20260509112811 19 334 3.2 4.8 0.00 0.03 0.03 79 1008.8
20260509111812 19 350 0.0 4.8 0.00 0.03 0.03 77 1008.6
20260509111312 20 339 1.6 1.6 0.00 0.03 0.03 77 1008.4
20260509110811 20 322 1.6 1.6 0.00 0.03 0.03 76 1008.4
20260509110311 20 355 0.0 1.6 0.00 0.03 0.03 74 1008.2
20260509105811 20 309 1.6 3.2 0.00 0.03 0.03 74 1008.3
20260509105312 20 342 3.2 8.0 0.00 0.03 0.03 73 1008.3
20260509104312 20 345 8.0 9.7 0.00 0.03 0.03 72 1008.4
20260509103311 20 17 8.0 14.5 0.00 0.03 0.03 73 1008.7
20260509102811 20 349 6.4 11.3 0.00 0.03 0.03 74 1008.7
20260509101811 20 331 8.0 14.5 0.00 0.03 0.03 76 1008.8
20260509101312 20 315 9.7 14.5 0.00 0.03 0.03 76 1008.9
20260509100811 20 340 4.8 9.7 0.00 0.03 0.03 77 1008.9
20260509095812 20 314 9.7 14.5 0.00 0.03 0.03 78 1009.0
20260509095311 20 297 22.5 24.1 0.00 0.03 0.03 76 1008.9
20260509094811 20 290 16.1 24.1 0.00 0.03 0.03 76 1008.8
20260509094312 20 267 22.5 25.7 0.00 0.03 0.03 71 1008.9
20260509093812 21 297 14.5 20.9 0.00 0.03 0.03 67 1008.4
20260509093312 21 309 8.0 16.1 0.00 0.03 0.03 70 1008.3
20260509092311 21 262 19.3 27.4 0.00 0.03 0.03 71 1007.8
20260509091812 20 308 11.3 35.4 0.00 0.03 0.03 76 1007.0
20260509091311 19 317 35.4 38.6 0.00 0.03 0.03 77 1007.4
20260509090811 19 204 8.0 14.5 0.00 0.03 0.03 78 1004.7
20260509085811 18 127 9.7 19.3 0.00 0.03 0.03 75 1004.8
20260509084811 18 122 6.4 11.3 0.00 0.03 0.03 76 1005.5
20260509084311 18 119 8.0 12.9 0.00 0.03 0.03 76 1005.8
20260509083812 18 133 4.8 12.9 0.00 0.03 0.03 78 1006.1
20260509083312 18 112 3.2 8.0 0.00 0.03 0.03 78 1006.4
20260509082811 18 155 3.2 9.7 0.00 0.03 0.03 81 1006.8
20260509081811 18 161 4.8 9.7 0.00 0.03 0.03 80 1006.9
20260509081311 18 149 1.6 1.6 0.00 0.03 0.03 80 1007.1
20260509080311 18 177 0.0 1.6 0.03 0.03 0.03 81 1007.4
20260509075811 18 177 1.6 1.6 0.03 0.03 0.03 82 1007.5
20260509075311 18 135 4.8 9.7 0.03 0.03 0.03 80 1007.5
20260509074812 18 155 8.0 14.5 0.03 0.03 0.03 80 1007.5
20260509074312 19 155 4.8 11.3 0.03 0.03 0.03 81 1007.4
20260509073811 19 165 4.8 9.7 0.03 0.03 0.03 81 1007.3
20260509073312 19 100 3.2 4.8 0.03 0.03 0.03 81 1007.6
20260509072311 20 152 1.6 3.2 0.03 0.03 0.03 79 1008.1
20260509071811 20 306 1.6 3.2 0.03 0.03 0.03 78 1008.7
20260509071311 20 306 1.6 1.6 0.03 0.03 0.03 76 1009.1
20260509070811 20 316 3.2 4.8 0.03 0.03 0.03 76 1009.6
20260509070311 21 312 6.4 14.5 0.00 0.00 0.00 75 1009.9
20260509065311 21 277 9.7 14.5 0.00 0.00 0.00 82 1010.8
20260509064811 21 293 11.3 14.5 0.00 0.00 0.00 83 1011.3
20260509064311 21 315 9.7 24.1 0.00 0.00 0.00 87 1011.2
20260509063811 20 297 9.7 19.3 0.00 0.00 0.00 89 1011.6
20260509063312 20 277 14.5 20.9 0.00 0.00 0.00 91 1011.7
20260509062812 20 291 11.3 16.1 0.00 0.00 0.00 91 1011.7
20260509062311 20 326 6.4 9.7 0.00 0.00 0.00 90 1011.3
20260509061811 20 321 4.8 12.9 0.00 0.00 0.00 90 1011.2
20260509061312 20 303 8.0 12.9 0.00 0.00 0.00 90 1011.2
20260509060812 20 314 4.8 8.0 0.00 0.00 0.00 91 1011.2
20260509060311 20 329 4.8 8.0 0.00 0.00 0.00 91 1011.0
20260509055811 20 329 3.2 3.2 0.00 0.00 0.00 90 1010.9
20260509055311 20 16 1.6 3.2 0.00 0.00 0.00 90 1010.5
20260509054811 20 31 4.8 4.8 0.00 0.00 0.00 90 1010.6
20260509054311 20 356 3.2 4.8 0.00 0.00 0.00 90 1010.8
20260509053811 20 358 1.6 4.8 0.00 0.00 0.00 89 1010.7
20260509052812 20 345 8.0 12.9 0.00 0.00 0.00 89 1010.7
20260509052311 20 23 8.0 12.9 0.00 0.00 0.00 89 1010.5
20260509051312 20 154 0.0 0.0 0.00 0.00 0.00 89 1009.9
20260509050819 20 154 0.0 0.0 0.00 0.00 0.00 89 1009.7
20260509050311 20 154 0.0 0.0 0.00 0.00 0.00 88 1009.5
20260509045811 20 154 0.0 0.0 0.00 0.00 0.00 88 1009.5
20260509045311 20 154 0.0 1.6 0.00 0.00 0.00 88 1009.4
20260509044812 20 154 1.6 3.2 0.00 0.00 0.00 88 1009.3
20260509044311 20 129 1.6 3.2 0.00 0.00 0.00 88 1009.3
20260509043811 21 95 0.0 1.6 0.00 0.00 0.00 88 1009.5
20260509043312 21 67 0.0 1.6 0.00 0.00 0.00 87 1009.5
20260509042812 21 79 1.6 3.2 0.00 0.00 0.00 87 1009.5
20260509042311 21 108 3.2 3.2 0.00 0.00 0.00 87 1009.3
20260509041811 21 90 1.6 3.2 0.00 0.00 0.00 87 1009.2
20260509040811 21 52 3.2 4.8 0.00 0.00 0.00 87 1009.5
20260509040311 21 49 1.6 4.8 0.00 0.00 0.00 86 1009.4
20260509035811 21 82 3.2 8.0 0.00 0.00 0.00 86 1009.2
20260509035312 21 75 1.6 3.2 0.00 0.00 0.00 86 1009.1
20260509034811 21 96 1.6 4.8 0.00 0.00 0.00 86 1008.9
20260509034311 21 134 3.2 4.8 0.00 0.00 0.00 86 1008.7
20260509033811 21 121 3.2 4.8 0.00 0.00 0.00 86 1008.7
20260509033311 21 118 0.0 4.8 0.00 0.00 0.00 86 1008.6
20260509032811 21 177 0.0 1.6 0.00 0.00 0.00 86 1008.5
20260509031311 21 156 9.7 12.9 0.00 0.00 0.00 85 1008.0
20260509030311 21 155 11.3 14.5 0.00 0.00 0.00 85 1007.8
20260509025311 21 137 11.3 19.3 0.00 0.00 0.00 85 1007.9
20260509024311 21 158 9.7 12.9 0.00 0.00 0.00 85 1007.4
20260509022812 21 139 8.0 14.5 0.00 0.00 0.00 84 1007.5
20260509022311 21 153 6.4 16.1 0.00 0.00 0.00 83 1007.4
20260509021812 22 157 8.0 12.9 0.00 0.00 0.00 83 1007.3
20260509021311 22 153 8.0 12.9 0.00 0.00 0.00 82 1007.3
20260509020811 22 161 4.8 9.7 0.00 0.00 0.00 82 1007.3
20260509020311 22 149 3.2 11.3 0.00 0.00 0.00 82 1007.4
20260509015811 22 140 8.0 12.9 0.00 0.00 0.00 82 1007.3
20260509015310 22 117 3.2 8.0 0.00 0.00 0.00 82 1007.4
20260509014812 22 170 4.8 8.0 0.00 0.00 0.00 82 1007.5
20260509014311 22 124 1.6 9.7 0.00 0.00 0.00 82 1007.5
20260509013811 22 141 1.6 4.8 0.00 0.00 0.00 81 1007.5
20260509013311 22 107 1.6 1.6 0.00 0.00 0.00 81 1007.6
20260509012811 22 148 1.6 4.8 0.00 0.00 0.00 81 1007.6
20260509011811 22 124 0.0 0.0 0.00 0.00 0.00 80 1007.7
20260509011311 22 124 0.0 0.0 0.00 0.00 0.00 80 1007.6
20260509010311 22 124 0.0 0.0 0.00 0.00 0.00 79 1007.5
20260509005811 22 159 0.0 0.0 0.00 0.00 0.00 79 1007.3
20260509005312 22 128 0.0 3.2 0.00 0.00 0.00 79 1007.2
20260509004812 22 178 3.2 4.8 0.00 0.00 0.00 78 1007.1
20260509004311 22 169 3.2 9.7 0.00 0.00 0.00 78 1007.0
20260509003811 23 142 6.4 11.3 0.00 0.00 0.00 77 1006.9
20260509003311 23 129 4.8 11.3 0.00 0.00 0.00 77 1007.0
20260509002811 23 153 6.4 12.9 0.00 0.00 0.00 77 1007.0
20260509001811 23 130 9.7 12.9 0.00 0.00 0.00 77 1007.0
20260509000811 23 144 4.8 16.1 0.00 0.00 0.00 78 1007.2
20260508235811 23 167 6.4 12.9 0.00 0.00 0.00 77 1007.4
20260508235311 23 171 11.3 12.9 0.00 0.00 0.00 77 1007.5
20260508234811 23 131 9.7 16.1 0.00 0.00 0.00 76 1007.5